Temp_Advection
nan nan nan nan nan nan nan nan nan nan nan nan nan nan nan nan nan nan nan nan nan nan nan nan nan nan nan nan nan nan nan nan nan nan nan nan nan nan nan nan nan nan nan nan nan nan nan nan nan nan nan nan
nan -0 -0 -0 -0 -0 -0 -0 -0 -0 -0 -0 -0 -0 -0 0 0 0 0 0 1 1 1 1 0 0 1 1 0 0 0 0 0 0 0 -0 -0 0 0 0 0 0 0 0 0 0 -0 -0 0 0 -0 nan
nan -0 -0 -0 -0 -0 -0 -0 -0 -0 -0 -0 -0 -0 -0 0 0 0 0 0 0 0 0 0 0 0 0 1 0 0 1 0 0 0 0 -0 -0 0 0 0 0 0 0 0 0 0 0 0 -0 0 -0 nan
nan -0 -0 -0 -0 -0 -0 -0 -0 -0 -0 -0 -0 -0 -0 -0 -0 0 0 0 0 0 0 0 0 0 0 0 0 0 0 0 0 0 0 0 0 0 0 0 0 0 0 0 0 0 0 0 -0 -0 -0 nan
nan -0 -1 -0 -0 -0 -0 -0 -0 -0 -0 -0 -0 -0 -0 -0 -0 -0 0 0 0 0 0 0 0 0 -0 -0 -0 -0 0 0 0 0 0 0 0 0 0 0 0 0 0 0 0 0 0 0 -0 -0 0 nan
nan -1 -1 -1 -0 -0 -0 -0 -0 -0 -0 -0 -0 0 0 0 -0 -0 -0 -0 -0 0 0 0 0 -0 -0 -0 -0 -0 -0 -0 -0 0 0 0 0 0 0 0 0 0 0 0 0 0 0 -0 -0 -0 -0 nan
nan -1 -1 -1 -1 -1 -1 -1 -0 -0 -0 -0 -0 -0 0 0 0 0 0 -0 -0 -0 0 -0 -0 -0 -0 -0 -0 -0 -0 -0 -0 0 0 0 0 0 0 0 0 0 0 0 0 0 0 -0 0 -0 0 nan
nan -1 -1 -1 -1 -2 -2 -1 -1 -1 -1 -1 -0 -0 -0 -0 0 0 0 0 0 -0 0 0 -0 -0 -0 -0 -1 -0 -0 -0 -0 -0 -0 0 0 0 0 0 0 0 0 0 0 0 0 0 0 0 0 nan
nan -1 -1 -1 -1 -1 -1 -2 -2 -2 -2 -1 -1 -1 -0 -0 -0 -0 0 0 0 0 0 0 -0 -0 -0 -0 -1 -1 -1 -0 -0 -0 -0 -0 -0 0 0 0 0 0 0 0 0 0 0 0 0 0 0 nan
nan -1 -1 -1 -1 -1 -1 -1 -1 -2 -2 -2 -2 -2 -2 -1 -1 -1 -1 -0 0 0 0 1 1 0 -0 -0 -0 -1 -1 -1 -1 -0 -0 -0 -0 0 0 0 0 0 0 0 0 0 0 0 0 0 0 nan
nan -1 -1 -1 -1 -1 -1 -1 -0 -1 -1 -2 -2 -3 -3 -2 -1 -2 -2 -2 -1 -1 -0 0 1 1 1 0 0 0 0 -1 -1 -1 -0 -0 -0 -0 -0 0 0 0 0 0 0 0 0 0 0 0 0 nan
nan -1 -1 -1 -1 -1 -1 -1 -0 -0 -1 -1 -1 -1 -3 -2 -2 -2 -2 -3 -3 -2 -1 -1 -0 0 1 0 0 0 1 0 -1 -1 -0 -0 -0 -0 -0 0 -0 -0 0 0 0 0 0 0 0 0 0 nan
nan -1 -1 -1 -1 -1 -1 -1 -1 -1 -1 -0 -0 -1 -2 -3 -2 -1 -2 -2 -3 -4 -3 -2 -2 -2 -1 -0 -0 -0 0 1 0 -0 -0 -0 -0 -0 -0 -0 -0 -0 -0 0 0 0 -0 -0 0 -0 -0 nan
nan -0 -1 -1 -1 -1 -1 -1 -1 -1 -1 -0 -0 -0 -1 -2 -1 -1 -1 -1 -2 -3 -3 -3 -3 -3 -3 -2 -2 -2 -1 -0 0 0 0 0 0 -0 -0 -0 -0 -0 0 0 0 0 -0 -0 0 0 -0 nan
nan -0 -1 -1 -1 -0 -1 -1 -1 -1 -1 -1 -0 -0 -0 -1 -1 -1 -1 -1 -1 -1 -2 -3 -3 -3 -4 -3 -3 -3 -3 -2 -1 -1 -0 0 0 0 -0 -0 -0 -0 -0 0 0 -0 -0 -0 -0 -0 -0 nan
nan -1 -1 -1 -1 -1 -1 -1 -1 -1 -1 -1 -1 -0 -0 -1 -1 -1 -1 -1 -1 -1 -1 -1 -1 -2 -3 -3 -2 -3 -4 -4 -3 -2 -1 -1 0 0 -0 -0 -0 -0 -0 0 0 -0 -0 -0 -0 -0 -0 nan
nan -2 -2 -1 -1 -1 -1 -1 -0 -0 -0 -1 -1 -0 -0 -1 -1 -1 -1 -1 -1 -1 -1 -1 -1 -1 -1 -1 -1 -2 -3 -4 -4 -4 -3 -2 -1 -0 -0 -0 -0 -0 -0 -0 -0 -0 -0 -0 -0 -0 -0 nan
nan -3 -3 -3 -2 -2 -2 -1 -0 0 0 -0 -0 -0 -0 -0 -1 -0 -0 -1 -1 -1 -1 -1 -1 -1 -1 -1 -1 -1 -2 -2 -3 -4 -4 -3 -3 -3 -1 -1 -1 -0 -0 -0 -0 0 -0 -0 -0 -0 -0 nan
nan -2 -2 -3 -3 -2 -3 -3 -2 -1 -0 -0 -0 -0 -0 -0 -0 -0 -0 -0 -0 -1 -1 -1 -1 -1 -1 -1 -0 -1 -1 -1 -1 -2 -3 -3 -3 -4 -3 -2 -1 -1 -1 -0 -0 0 -0 -0 -0 -0 -0 nan
nan -1 -1 -1 -1 -1 -2 -2 -2 -2 -2 -1 -0 -0 -0 -0 -0 -1 -1 -0 -0 -0 -1 -1 -1 -1 -1 -0 -0 -1 -1 -1 -1 -1 -1 -1 -2 -3 -4 -3 -2 -1 -1 -1 -0 0 -0 -0 -0 -0 -0 nan
nan -0 -0 -0 -0 -0 -0 -0 -1 -1 -2 -2 -1 -1 -0 -1 -1 -1 -1 -1 -0 -0 -1 -1 -0 -1 -1 -1 -0 -0 -1 -1 -1 -1 -0 -0 -1 -1 -2 -2 -3 -3 -2 -2 -1 -1 -0 -1 -0 -0 -0 nan
nan 0 0 -0 -0 -0 0 -0 0 0 -0 -1 -1 -1 -1 -1 -0 -0 -0 -1 -1 -0 -1 -1 -1 -0 -0 -0 -1 -0 -0 -1 -1 -1 -1 -0 -0 -0 -0 -1 -1 -1 -2 -2 -2 -2 -1 -0 -1 -0 -0 nan
nan 0 0 0 0 0 0 0 -0 0 0 0 -0 -0 -1 -2 -2 -1 -0 0 -0 -1 -1 -1 -1 -1 -0 -0 -0 -0 -0 -1 -1 -1 -0 -0 -0 -0 -0 -0 -0 -0 -0 -1 -2 -3 -3 -1 -1 -0 -1 nan
nan 0 1 1 0 0 0 0 0 0 0 0 0 0 -0 -2 -2 -2 -2 -1 0 -0 -1 -1 -1 -1 -1 -1 -1 -0 -1 -1 -1 -0 -0 -0 -0 -0 -0 -0 -0 -0 -0 -0 -1 -2 -3 -3 -2 -0 -0 nan
nan 0 0 0 0 0 0 -0 -0 0 0 0 0 0 0 -0 -1 -1 -2 -2 -1 -0 -0 -1 -1 -1 -1 -1 -1 -1 -1 -1 -0 -0 -0 -0 -0 -0 -0 -0 -0 -0 -0 -0 -0 -1 -1 -2 -3 -1 -0 nan
nan 0 0 0 0 -0 0 -0 -0 -0 0 0 0 0 0 0 0 -0 -1 -1 -1 -1 -1 -1 -1 -1 -1 -1 -1 -1 -1 -1 -1 -0 0 -0 -0 -0 -0 -0 -0 -0 -0 -0 -0 -1 -0 -1 -1 -2 -2 nan
nan 1 0 0 0 -0 -0 -0 -0 -0 -0 -0 -0 0 0 0 1 0 -0 -0 -0 -1 -1 -1 -1 -1 -1 -1 -1 -1 -1 -1 -1 -0 -0 -0 -0 -1 -1 -1 -0 -0 -0 -0 -0 -0 -0 -1 -1 -1 -1 nan
nan 0 0 0 0 -0 -0 -0 -0 -0 -0 -0 -0 -0 -0 0 0 0 0 -0 -0 -0 -1 -1 -1 -1 -1 -1 -1 -1 -1 -1 -1 -0 -0 -0 -0 -0 -1 -1 -0 -0 -0 -0 -0 -0 -0 -1 -1 -1 -0 nan
nan 0 0 -0 -0 -0 -0 -0 -0 -0 -0 -0 -0 -1 -0 -0 0 0 0 0 -0 -0 -0 -1 -1 -1 -1 -1 -1 -1 -1 -1 -1 -1 -0 -0 -0 -0 -0 -0 -0 -0 -0 -0 -0 -0 -0 -0 -0 -0 -0 nan
nan -0 -0 -1 -1 -1 -1 -1 -1 -0 -0 -0 -0 -0 -1 -1 -0 -0 -0 0 0 -0 -0 -1 -1 -1 -0 -1 -1 -1 -1 -1 -1 -1 -1 -0 -0 -0 -0 -0 -0 -0 -0 0 0 0 -0 -0 -0 0 0 nan
nan nan nan nan nan nan nan nan nan nan nan nan nan nan nan nan nan nan nan nan nan nan nan nan nan nan nan nan nan nan nan nan nan nan nan nan nan nan nan nan nan nan nan nan nan nan nan nan nan nan nan nan
Wind_Speed
8 8 7 6 4 5 8 9 10 10 9 9 9 9 9 9 10 11 11 13 14 13 11 11 12 11 13 15 11 14 17 16 16 14 14 15 16 15 14 13 12 13 15 16 15 11 10 11 10 7 5 5
11 11 10 8 7 6 5 5 6 8 8 8 8 8 10 10 10 11 10 11 12 12 10 9 9 8 11 15 12 13 16 16 14 15 15 15 16 16 15 14 12 13 13 15 15 11 10 11 12 8 5 3
13 12 11 9 9 8 7 6 5 6 7 7 7 6 7 7 8 10 10 10 11 10 8 6 6 5 7 11 12 13 15 16 15 15 16 15 16 16 15 14 13 13 12 14 14 9 9 13 13 11 6 3
13 13 11 10 10 10 9 9 8 7 6 6 7 6 5 4 4 5 7 9 10 9 6 4 4 3 2 4 8 9 12 16 16 16 16 15 16 17 15 13 13 13 12 14 14 10 10 13 13 12 9 5
15 14 13 11 10 9 9 9 8 8 7 6 6 7 6 5 3 2 4 4 6 6 4 3 4 4 3 2 2 4 5 10 15 17 16 14 15 17 16 14 12 12 11 13 15 12 11 13 13 13 11 7
18 17 16 15 13 11 10 9 8 8 8 8 7 7 7 6 6 6 5 4 4 4 3 1 2 5 7 6 4 2 3 3 8 14 15 16 16 16 15 14 12 10 11 13 16 14 11 12 13 15 12 8
21 21 20 19 18 16 13 12 11 10 10 9 9 8 8 8 7 8 8 8 8 6 5 3 3 3 6 8 6 4 3 2 3 6 9 14 17 16 15 14 12 10 11 13 15 13 11 11 12 14 12 10
24 24 23 23 22 20 18 18 16 14 13 12 11 10 10 9 7 7 7 8 10 11 10 8 6 3 5 9 9 6 5 3 2 2 4 8 12 14 15 14 14 13 11 12 16 14 11 10 11 12 12 12
26 26 25 26 25 22 22 22 20 19 18 16 15 13 12 12 10 8 7 7 8 9 11 11 10 9 8 12 13 10 8 7 4 3 2 4 8 11 12 12 13 15 13 11 15 15 11 10 10 11 12 13
27 28 28 28 28 24 24 23 21 21 21 20 19 18 16 15 15 14 12 11 9 8 10 11 11 12 12 14 15 14 13 11 9 7 5 3 5 7 9 10 10 13 15 13 14 14 13 11 10 11 12 14
29 30 29 30 29 26 26 25 23 22 22 20 19 20 20 19 18 18 17 16 15 12 11 11 11 12 13 14 15 15 16 15 14 13 10 7 5 4 7 8 8 9 13 14 14 14 14 12 10 10 12 14
31 31 30 31 30 28 27 27 25 24 21 18 17 19 21 22 21 20 20 19 20 18 17 16 14 14 14 15 15 16 16 15 17 17 15 13 10 7 6 7 7 8 10 12 14 15 15 14 11 11 12 14
31 32 32 32 31 28 28 28 27 25 20 16 15 16 20 25 24 21 20 20 21 22 21 20 19 18 17 17 18 18 18 16 16 17 18 18 16 14 11 8 8 8 9 11 13 15 17 18 16 14 13 13
33 32 32 32 31 28 28 29 28 25 21 17 15 14 18 23 23 22 22 20 20 22 22 23 22 22 21 21 21 21 21 19 18 18 17 18 20 20 18 14 11 9 9 11 12 14 15 17 18 18 16 15
35 34 33 32 32 29 28 29 27 24 21 18 14 14 17 20 21 22 22 20 20 21 22 23 22 23 24 23 23 23 24 23 21 21 19 18 18 21 23 21 17 13 12 12 12 14 15 15 17 19 19 18
37 36 35 33 32 30 29 28 25 23 20 17 15 16 18 20 21 21 20 19 19 21 23 22 20 21 22 22 21 21 24 25 25 24 23 22 20 19 22 24 23 19 16 15 15 15 16 16 17 19 20 21
38 37 36 35 33 31 30 28 26 22 18 16 17 17 18 19 19 19 18 18 19 22 22 21 20 19 19 19 18 18 21 24 25 26 26 25 24 22 21 22 24 24 21 18 18 18 18 18 18 19 21 22
35 34 34 34 33 32 31 29 26 23 18 17 18 17 17 17 17 17 18 18 19 21 20 20 19 18 17 16 15 17 20 21 21 24 25 26 26 26 25 23 22 24 25 23 21 20 20 20 21 21 21 23
29 29 30 30 31 30 30 30 28 25 22 21 19 17 17 16 17 17 18 19 19 18 18 19 18 16 16 15 16 18 19 17 17 20 21 22 24 26 27 26 24 23 25 26 25 22 21 22 22 23 24 24
22 23 23 23 24 23 24 26 25 25 25 24 22 20 18 17 18 20 21 21 19 17 18 18 17 16 16 16 18 18 17 16 17 16 16 17 20 23 25 27 27 26 25 25 26 25 24 24 25 25 26 26
18 19 19 18 17 16 17 18 18 20 23 25 25 23 20 20 22 23 24 23 20 18 17 18 18 18 17 17 17 18 17 16 16 14 14 14 15 18 21 22 24 27 27 25 25 26 26 26 26 27 28 28
19 19 18 16 15 15 15 15 15 16 18 21 24 24 24 27 29 27 25 24 22 20 18 18 18 18 18 17 17 17 17 16 16 15 15 16 15 15 16 17 18 20 22 24 25 26 27 27 28 28 29 30
21 20 18 17 17 17 16 15 15 15 16 18 19 20 26 34 35 31 27 25 23 22 19 18 18 18 18 18 18 18 18 17 16 16 15 16 16 16 16 17 18 17 18 21 24 26 27 28 29 29 30 32
23 22 21 21 20 19 19 18 17 17 17 18 18 19 24 32 34 31 29 28 26 22 19 19 18 18 18 18 18 19 19 18 17 15 15 15 15 16 17 17 17 18 18 18 20 24 27 28 29 30 30 32
24 23 24 24 22 21 21 21 21 20 19 19 20 21 22 24 24 22 25 29 29 25 20 19 19 19 19 18 19 19 20 19 19 17 17 16 17 17 17 17 16 16 15 16 17 19 20 22 24 27 29 32
24 24 24 23 23 23 24 23 23 23 22 22 22 21 20 20 19 19 21 24 24 22 22 21 22 22 22 20 20 21 21 21 21 20 19 18 18 18 18 18 17 16 15 15 15 14 14 15 16 21 25 28
24 23 22 23 24 24 24 24 23 23 24 23 23 23 22 22 22 22 22 21 20 22 26 27 27 28 27 24 23 23 23 22 22 21 20 19 19 18 18 18 18 17 17 16 14 12 13 12 11 13 17 23
24 23 22 23 23 23 23 23 23 23 24 24 24 24 24 24 24 24 23 22 23 27 31 32 32 30 28 26 25 24 25 24 23 22 21 19 19 19 19 19 17 17 18 18 15 13 13 11 11 12 12 15
21 20 19 20 20 20 21 22 23 23 24 24 24 24 25 26 26 27 26 26 28 29 31 33 33 30 28 26 25 25 26 26 24 23 22 20 19 20 20 19 18 17 18 19 18 16 14 11 10 11 9 10
19 17 16 17 19 20 21 23 24 24 24 24 25 25 26 27 28 29 29 29 29 28 29 31 29 26 25 25 25 24 25 27 26 24 23 22 21 21 21 20 19 19 18 19 20 20 19 16 12 11 8 6
19 19 18 19 21 22 23 25 25 24 25 25 26 27 28 29 29 29 29 29 28 28 28 27 25 24 24 25 25 25 26 27 27 26 24 23 22 21 20 20 21 20 18 18 19 20 21 20 18 17 14 10
Wind_Direction
51 48 42 29 0 314 295 292 289 284 279 273 271 270 256 244 239 228 211 196 183 172 164 154 141 143 184 196 196 209 216 221 222 223 222 222 224 222 225 228 233 235 233 240 236 235 259 261 256 268 302 341
54 55 51 42 26 13 353 333 315 304 298 289 278 274 266 260 254 249 243 228 212 198 187 180 177 155 174 194 194 196 201 207 213 216 219 223 224 221 222 224 231 237 236 239 243 248 246 241 245 250 263 324
46 49 49 46 41 37 30 23 10 348 330 318 305 288 267 259 252 252 255 247 236 225 206 187 201 195 190 201 201 197 199 204 205 205 211 220 222 221 223 226 229 231 235 234 240 253 233 231 243 244 245 278
35 39 42 43 44 43 40 36 30 23 7 350 335 323 302 277 261 243 247 246 239 232 219 192 178 181 212 228 218 208 205 209 210 206 208 215 218 219 220 224 227 225 229 230 238 250 230 227 237 244 245 241
25 25 26 27 30 32 34 34 33 31 24 19 6 348 332 307 306 285 250 248 237 224 213 178 124 100 73 31 280 250 226 215 216 219 218 216 215 218 220 222 226 227 229 228 233 241 230 230 231 236 242 233
19 17 14 11 11 11 12 13 14 17 18 19 18 11 356 331 319 318 296 280 265 238 222 183 90 71 55 43 30 339 299 248 225 227 225 220 220 222 224 225 226 228 231 225 228 235 230 231 230 230 235 229
14 15 11 6 5 2 358 358 357 355 358 359 2 7 7 360 342 331 319 304 296 280 269 302 345 36 30 15 17 21 348 319 252 233 224 220 222 225 228 229 222 223 234 224 221 231 230 231 230 226 231 228
10 12 10 6 4 3 357 353 353 349 346 344 344 346 350 356 353 348 340 326 316 299 281 281 296 313 347 341 339 354 0 348 327 266 230 221 222 223 228 232 225 225 233 222 218 226 231 232 226 224 230 224
8 7 7 5 3 4 358 355 354 348 345 341 337 334 335 337 335 336 339 336 334 322 305 295 298 299 302 312 313 317 334 342 341 342 290 233 227 223 222 224 223 227 234 229 223 223 227 231 224 223 227 219
4 2 2 1 1 2 358 358 357 349 346 345 341 333 328 332 334 330 328 326 327 328 320 312 311 310 307 312 309 300 307 321 324 330 333 296 247 234 225 220 216 221 229 234 231 223 219 221 218 217 220 220
1 359 357 356 357 358 355 357 356 351 349 347 344 335 325 327 335 335 330 326 324 323 320 314 308 305 304 310 312 302 299 306 309 311 315 320 307 267 240 232 230 225 224 226 231 230 224 218 213 214 216 222
357 355 353 352 352 353 350 352 351 350 353 348 340 336 326 324 333 338 334 330 325 325 324 322 315 305 297 293 298 304 304 301 303 302 299 303 311 305 274 243 240 241 237 229 227 228 231 232 227 224 218 222
354 352 350 349 349 349 345 346 346 346 350 343 334 335 324 321 330 334 333 332 326 324 324 325 324 318 312 303 296 297 301 300 299 300 295 293 295 301 299 274 249 241 247 246 240 234 236 240 236 231 226 224
351 350 348 346 346 345 341 340 342 343 343 337 332 330 320 321 328 328 328 329 325 323 321 323 325 323 321 319 314 306 303 302 300 300 298 292 288 290 296 292 273 252 246 248 251 248 244 242 236 231 229 227
346 346 345 344 343 341 338 337 339 339 336 334 330 319 315 318 320 321 324 324 322 319 317 322 323 320 321 321 324 319 312 311 308 304 302 299 291 284 287 290 287 273 256 247 248 247 245 245 239 233 230 228
342 341 341 340 340 338 335 335 336 335 332 330 322 313 311 312 314 317 320 319 317 313 315 320 317 315 318 319 321 317 313 316 315 312 309 307 301 289 282 281 284 283 272 257 251 247 242 242 241 238 234 231
340 339 337 337 337 335 332 332 332 331 331 323 315 312 310 311 314 314 315 315 312 311 314 315 313 313 312 313 314 307 307 313 315 314 313 311 307 300 289 279 277 280 279 270 258 253 247 241 239 239 238 235
338 337 336 334 334 332 330 329 328 326 321 313 311 312 310 310 310 309 309 309 310 311 312 310 310 309 306 306 301 294 301 308 308 308 310 311 309 304 299 291 281 275 276 276 267 258 253 247 240 238 237 238
332 333 334 332 332 332 329 327 326 323 318 312 310 310 309 308 306 304 301 302 307 309 308 307 306 304 301 299 294 293 300 299 295 299 303 305 304 303 301 298 291 279 273 274 273 266 257 251 244 239 236 236
320 324 326 326 326 326 324 325 323 320 318 315 313 312 311 310 307 306 305 304 305 303 302 303 302 299 296 294 294 295 296 291 288 290 289 290 291 294 297 297 294 287 278 271 271 270 263 255 248 244 239 235
307 312 313 314 313 312 311 314 314 312 314 316 315 315 313 311 312 313 313 310 307 301 296 296 297 296 296 294 293 292 292 288 285 281 276 276 278 282 286 289 289 288 286 278 270 266 264 259 252 247 243 238
301 304 305 304 304 303 302 303 304 303 308 313 313 312 311 312 314 317 318 315 310 304 296 292 291 293 294 294 292 289 287 284 281 277 271 267 265 266 268 272 276 279 282 281 276 268 262 259 256 250 246 242
302 303 303 304 304 303 301 300 301 299 301 306 306 307 309 312 314 314 316 317 313 306 299 293 288 288 290 290 290 286 282 281 280 277 271 266 262 259 257 257 260 262 265 270 274 274 267 260 256 253 249 246
299 301 302 303 304 303 302 301 300 298 298 300 300 301 305 310 313 312 313 316 315 308 300 295 289 286 285 285 286 283 281 279 276 273 268 265 261 259 257 253 254 257 260 263 267 273 275 269 260 254 251 249
295 295 298 299 300 300 299 300 300 298 300 300 300 300 302 306 310 310 311 314 315 309 300 294 290 287 285 282 281 280 279 276 273 270 266 263 260 257 256 253 249 249 254 259 263 269 277 279 272 261 253 250
293 291 293 294 295 296 296 297 296 296 298 301 303 302 303 305 305 305 309 311 311 306 301 296 291 288 285 280 277 276 275 273 270 267 265 263 260 257 254 252 248 243 243 248 256 264 272 276 276 271 263 256
295 290 290 291 293 294 294 293 293 293 295 298 300 300 300 301 299 301 305 305 303 302 301 298 295 291 286 280 274 273 273 271 268 264 263 260 257 256 253 251 248 240 236 240 247 255 261 265 270 273 269 264
299 291 290 290 291 292 292 292 292 292 292 294 294 295 295 295 295 298 299 296 297 300 299 298 296 292 285 279 272 269 269 268 266 261 260 258 253 252 250 249 247 240 236 236 237 242 250 255 261 260 255 267
301 294 296 298 296 295 294 294 294 293 293 294 293 292 292 293 293 295 294 293 295 297 296 296 296 289 279 275 271 267 264 263 263 259 256 255 251 248 247 247 246 241 237 234 232 234 239 239 244 251 251 265
296 301 311 311 306 303 301 297 295 294 294 295 294 293 293 292 292 292 292 293 294 295 295 294 291 283 275 274 271 267 263 260 259 257 254 252 250 247 244 244 245 242 237 235 235 234 234 234 238 252 271 279
299 308 313 311 307 304 301 298 295 294 294 294 294 293 293 292 292 291 291 291 292 294 296 293 288 281 277 275 272 267 263 260 256 253 252 250 248 246 241 239 240 240 236 235 236 234 235 238 241 250 261 268
Height
1521 1521 1520 1520 1519 1518 1518 1517 1517 1517 1516 1516 1515 1515 1515 1514 1514 1514 1513 1512 1510 1509 1510 1510 1511 1511 1512 1514 1514 1515 1515 1516 1516 1517 1517 1518 1518 1519 1520 1521 1522 1523 1523 1524 1525 1526 1527 1528 1528 1529 1530 1530
1522 1521 1521 1520 1519 1519 1518 1518 1517 1517 1516 1516 1516 1515 1515 1514 1514 1513 1512 1512 1511 1509 1508 1508 1508 1509 1510 1511 1512 1513 1513 1514 1514 1515 1515 1516 1517 1518 1519 1520 1521 1521 1522 1523 1524 1525 1526 1527 1527 1528 1529 1530
1522 1522 1521 1521 1520 1519 1519 1518 1517 1517 1517 1516 1516 1516 1515 1514 1514 1514 1513 1512 1512 1511 1509 1507 1507 1507 1508 1509 1510 1511 1512 1512 1512 1512 1513 1514 1516 1517 1518 1519 1519 1520 1521 1522 1522 1524 1525 1526 1526 1527 1528 1529
1523 1522 1521 1521 1520 1520 1519 1519 1518 1518 1517 1517 1516 1516 1516 1515 1514 1513 1513 1512 1512 1511 1509 1508 1507 1507 1508 1508 1508 1509 1510 1511 1511 1511 1511 1513 1514 1515 1516 1517 1518 1519 1520 1521 1521 1522 1524 1525 1525 1525 1526 1528
1523 1522 1522 1521 1521 1520 1520 1519 1519 1518 1518 1517 1517 1516 1516 1515 1514 1513 1512 1512 1511 1510 1509 1509 1508 1507 1508 1508 1509 1509 1509 1509 1510 1510 1510 1511 1513 1514 1515 1516 1517 1518 1519 1520 1520 1521 1522 1524 1524 1525 1525 1526
1524 1523 1522 1521 1521 1520 1519 1519 1519 1518 1518 1517 1517 1516 1516 1515 1514 1513 1513 1512 1511 1510 1510 1510 1509 1508 1508 1509 1509 1509 1509 1509 1508 1509 1510 1510 1511 1512 1513 1515 1516 1517 1518 1518 1519 1520 1521 1522 1523 1524 1524 1525
1525 1524 1523 1522 1521 1520 1519 1519 1518 1517 1517 1516 1516 1516 1515 1515 1514 1513 1513 1512 1511 1510 1510 1510 1509 1508 1508 1509 1509 1509 1509 1509 1508 1508 1508 1509 1510 1511 1512 1513 1515 1516 1516 1517 1517 1518 1520 1521 1522 1523 1523 1524
1526 1524 1524 1523 1522 1521 1520 1519 1518 1517 1516 1516 1515 1515 1514 1514 1514 1513 1512 1512 1512 1511 1510 1510 1509 1507 1507 1508 1509 1509 1509 1509 1508 1508 1507 1507 1508 1509 1510 1512 1513 1514 1515 1515 1516 1517 1518 1520 1521 1521 1522 1523
1526 1525 1524 1523 1522 1521 1520 1519 1518 1517 1516 1515 1514 1514 1513 1513 1513 1512 1512 1512 1511 1510 1510 1510 1509 1508 1507 1508 1508 1508 1508 1508 1508 1507 1507 1506 1506 1507 1508 1510 1511 1513 1514 1515 1515 1516 1517 1518 1519 1520 1521 1522
1527 1526 1524 1523 1522 1521 1520 1519 1518 1517 1516 1515 1514 1513 1512 1512 1512 1511 1511 1510 1509 1509 1509 1509 1509 1509 1508 1509 1509 1508 1507 1507 1507 1507 1506 1505 1505 1505 1506 1508 1509 1511 1512 1513 1514 1514 1515 1516 1517 1518 1519 1520
1527 1526 1525 1523 1522 1521 1520 1519 1518 1517 1516 1515 1514 1513 1511 1510 1510 1510 1509 1508 1507 1507 1507 1508 1508 1509 1509 1510 1510 1508 1507 1506 1506 1506 1506 1505 1504 1504 1505 1506 1507 1509 1510 1512 1512 1513 1514 1514 1515 1516 1518 1519
1527 1526 1524 1523 1522 1521 1520 1519 1518 1517 1516 1515 1514 1513 1511 1510 1509 1509 1508 1507 1506 1506 1506 1506 1506 1507 1508 1509 1509 1508 1507 1506 1505 1504 1504 1504 1504 1503 1504 1505 1505 1506 1508 1509 1511 1512 1512 1513 1514 1515 1516 1517
1527 1525 1524 1523 1521 1520 1519 1518 1517 1516 1516 1515 1514 1513 1511 1509 1509 1508 1507 1507 1506 1505 1504 1504 1504 1504 1504 1505 1506 1506 1505 1505 1504 1503 1503 1502 1502 1502 1503 1503 1504 1504 1505 1507 1508 1510 1511 1511 1513 1513 1514 1515
1526 1525 1523 1522 1521 1520 1518 1517 1516 1515 1515 1515 1514 1513 1511 1509 1508 1507 1507 1506 1505 1504 1503 1502 1502 1502 1502 1502 1502 1503 1502 1502 1502 1501 1501 1501 1501 1501 1502 1502 1502 1503 1504 1504 1506 1508 1509 1510 1511 1512 1513 1514
1524 1523 1522 1521 1520 1519 1517 1516 1515 1515 1514 1513 1513 1512 1510 1508 1507 1506 1505 1505 1504 1503 1502 1501 1501 1500 1500 1500 1500 1500 1499 1500 1499 1499 1499 1498 1499 1500 1500 1500 1500 1501 1502 1503 1504 1505 1506 1508 1508 1509 1510 1512
1522 1521 1520 1519 1518 1517 1516 1515 1514 1514 1513 1512 1512 1510 1509 1507 1506 1505 1504 1503 1503 1501 1500 1500 1500 1499 1498 1498 1498 1498 1497 1497 1496 1496 1496 1496 1496 1497 1498 1498 1498 1499 1500 1501 1501 1502 1503 1505 1506 1507 1508 1509
1519 1518 1517 1516 1515 1515 1513 1513 1512 1512 1512 1511 1510 1509 1507 1506 1505 1504 1503 1502 1501 1500 1499 1498 1498 1498 1497 1497 1496 1496 1495 1494 1494 1493 1493 1493 1493 1494 1495 1495 1495 1496 1497 1498 1499 1499 1500 1502 1503 1504 1505 1507
1517 1516 1515 1513 1512 1512 1511 1510 1510 1509 1509 1509 1508 1507 1506 1505 1504 1503 1501 1500 1499 1498 1497 1497 1496 1496 1496 1496 1495 1494 1493 1492 1492 1491 1491 1490 1490 1490 1491 1492 1492 1493 1494 1495 1496 1497 1498 1498 1499 1501 1502 1504
1516 1514 1513 1511 1510 1509 1508 1507 1507 1506 1506 1506 1505 1505 1504 1503 1502 1500 1499 1498 1497 1496 1495 1495 1494 1494 1494 1494 1493 1492 1491 1491 1490 1490 1489 1489 1488 1488 1488 1488 1489 1490 1491 1492 1493 1494 1495 1496 1496 1498 1499 1501
1514 1512 1511 1509 1508 1507 1506 1505 1504 1503 1503 1503 1503 1502 1502 1500 1499 1498 1497 1496 1495 1494 1494 1493 1492 1492 1492 1492 1491 1489 1489 1489 1488 1488 1488 1487 1487 1486 1485 1485 1485 1486 1488 1489 1490 1491 1492 1493 1494 1495 1496 1497
1512 1511 1509 1507 1506 1505 1504 1503 1502 1501 1500 1500 1500 1500 1499 1498 1497 1495 1494 1493 1492 1492 1491 1491 1490 1490 1489 1489 1489 1488 1487 1486 1486 1486 1486 1486 1485 1485 1484 1483 1483 1483 1484 1485 1486 1488 1489 1490 1491 1492 1493 1494
1511 1509 1507 1506 1505 1504 1503 1502 1501 1500 1498 1498 1497 1497 1497 1495 1494 1493 1491 1490 1489 1489 1488 1488 1488 1487 1487 1487 1487 1486 1485 1484 1484 1484 1484 1483 1483 1483 1483 1482 1482 1482 1482 1482 1483 1484 1485 1486 1487 1489 1490 1491
1510 1509 1507 1505 1504 1503 1502 1501 1500 1499 1498 1497 1495 1494 1493 1492 1491 1490 1489 1487 1486 1486 1485 1485 1485 1485 1484 1484 1484 1484 1483 1482 1482 1481 1481 1481 1481 1481 1481 1481 1481 1481 1481 1481 1480 1481 1482 1483 1484 1485 1486 1487
1509 1508 1506 1505 1503 1502 1501 1500 1499 1497 1496 1495 1494 1492 1491 1489 1488 1487 1486 1484 1484 1483 1482 1482 1482 1482 1481 1481 1481 1481 1481 1480 1480 1479 1479 1478 1478 1478 1478 1478 1479 1479 1479 1479 1479 1478 1478 1478 1479 1481 1482 1482
1507 1506 1504 1503 1501 1500 1499 1498 1497 1496 1494 1494 1492 1490 1488 1487 1486 1485 1483 1481 1480 1480 1479 1479 1479 1478 1477 1477 1478 1478 1478 1478 1478 1477 1476 1476 1475 1475 1475 1476 1476 1477 1477 1477 1476 1476 1476 1475 1475 1476 1478 1479
1504 1503 1502 1500 1499 1498 1496 1495 1495 1493 1492 1491 1489 1488 1486 1485 1484 1483 1481 1480 1478 1477 1476 1476 1475 1474 1474 1474 1474 1475 1475 1475 1475 1474 1473 1473 1472 1472 1473 1473 1473 1474 1475 1475 1474 1474 1474 1473 1473 1472 1473 1474
1502 1501 1500 1498 1497 1495 1494 1493 1492 1490 1489 1488 1487 1486 1485 1484 1483 1481 1479 1478 1476 1474 1473 1473 1472 1470 1470 1470 1470 1471 1471 1471 1472 1471 1470 1470 1469 1469 1470 1470 1470 1471 1472 1472 1472 1473 1472 1471 1472 1471 1470 1469
1500 1498 1497 1496 1494 1493 1491 1490 1489 1487 1486 1485 1483 1482 1482 1481 1480 1478 1476 1475 1473 1471 1470 1469 1468 1467 1466 1466 1466 1467 1467 1468 1468 1468 1467 1467 1466 1466 1466 1466 1467 1468 1468 1469 1470 1470 1469 1470 1470 1469 1468 1468
1496 1495 1494 1492 1491 1490 1488 1487 1486 1484 1483 1481 1480 1479 1478 1478 1477 1475 1473 1471 1469 1468 1467 1465 1464 1463 1462 1462 1462 1463 1463 1463 1464 1464 1464 1464 1463 1463 1463 1463 1464 1464 1465 1466 1466 1467 1467 1468 1468 1467 1468 1468
1493 1492 1491 1490 1489 1487 1486 1484 1483 1482 1480 1478 1477 1476 1474 1474 1473 1472 1470 1468 1467 1465 1463 1462 1460 1460 1459 1458 1458 1459 1459 1459 1460 1460 1460 1460 1460 1460 1460 1460 1460 1461 1462 1463 1463 1463 1464 1465 1465 1465 1466 1466
1491 1490 1489 1488 1487 1485 1484 1482 1480 1479 1478 1476 1474 1472 1471 1469 1469 1467 1466 1464 1463 1462 1460 1459 1458 1457 1456 1455 1455 1455 1455 1455 1455 1456 1457 1457 1457 1456 1457 1457 1457 1457 1458 1459 1459 1460 1461 1462 1462 1463 1464 1465